Location: Barruelo
(41.2448°N, 3.8231°W)
Time: 05:42:40
(UTC+00:00)

Cosmos 2227 Rocket - Pass Details

Date: 20 March 2026
Orbit: 836 x 845 km, 71.0° (Epoch: 15 April)

Event Time Altitude Azimuth Distance (km) Brightness Sun altitude
Rises 22:14:42 0° 331° (NNW) 3,413 6.2 -39.5°
Reaches altitude 10° 22:17:12 10° 327° (NNW) 2,474 5.3 -39.8°
Enters shadow 22:19:27 24° 318° (NW) 1,687 4.2 -40.1°
